DW4611 Weather Reports


Display with metric or nautical units.
time (UTC)temp
F
wind
direction
speed
MPH
gust
MPH
rain 1hr
in
rain 24hr
in
rain mn
in
humidity
%
barometer
mb
20180624143233 75 78 2.0 12.0 0.00 0.00 0.00 55 1013.3
20180624141732 77 105 4.0 10.0 0.00 0.00 0.00 51 1013.5
20180624140230 76 161 1.0 8.0 0.00 0.00 0.00 54 1013.6
20180624134729 76 159 3.0 12.0 0.00 0.00 0.00 55 1013.7
20180624133228 76 192 7.0 15.0 0.00 0.00 0.00 55 1013.9
20180624131725 76 166 2.0 10.0 0.00 0.00 0.00 52 1013.9
20180624130225 76 171 6.0 15.0 0.00 0.00 0.00 54 1014.1
20180624124719 75 164 3.0 10.0 0.00 0.00 0.00 54 1014.3
20180624123218 73 123 3.0 10.0 0.00 0.00 0.00 57 1014.4
20180624121718 73 162 4.0 8.0 0.00 0.00 0.00 56 1014.7
20180624120215 74 154 4.0 9.0 0.00 0.00 0.00 55 1014.8
20180624114712 74 150 2.0 10.0 0.00 0.00 0.00 56 1014.8
20180624113212 75 153 3.0 11.0 0.00 0.00 0.00 53 1014.9
20180624111710 75 165 3.0 12.0 0.00 0.00 0.00 53 1015.1
20180624110207 75 188 6.0 13.0 0.00 0.00 0.00 56 1015.1
20180624104705 74 171 5.0 10.0 0.00 0.00 0.00 56 1015.1
20180624103201 73 168 4.0 14.0 0.00 0.00 0.00 55 1015.2
20180624101701 73 156 2.0 12.0 0.00 0.00 0.00 57 1015.3
20180624100156 72 167 6.0 11.0 0.00 0.00 0.00 59 1015.4
20180624094655 73 167 5.0 10.0 0.00 0.00 0.00 59 1015.5
20180624093158 73 177 3.0 15.0 0.00 0.00 0.00 60 1015.6
20180624091652 72 184 5.0 11.0 0.00 0.00 0.00 59 1015.5
20180624090149 72 155 7.0 16.0 0.00 0.00 0.00 58 1015.5
20180624084647 72 165 6.0 10.0 0.00 0.00 0.00 62 1015.6
20180624083143 71 155 5.0 11.0 0.00 0.00 0.00 61 1015.7
20180624081638 71 178 2.0 10.0 0.00 0.00 0.00 63 1015.8
20180624080134 70 148 1.0 8.0 0.00 0.00 0.00 63 1015.8
20180624074635 70 149 3.0 8.0 0.00 0.00 0.00 65 1015.8
20180624073134 71 144 1.0 6.0 0.00 0.00 0.00 67 1015.8
20180624071626 69 88 0.0 5.0 0.00 0.00 0.00 69 1016.0
20180624070123 67 118 0.0 0.0 0.00 0.00 0.00 71 1016.1
20180624064617 66 118 0.0 4.0 0.00 0.00 0.00 74 1016.2
20180624063118 66 161 2.0 7.0 0.00 0.00 0.00 75 1016.2
20180624061616 65 115 3.0 7.0 0.00 0.00 0.00 77 1016.2
20180624060116 64 106 2.0 7.0 0.00 0.00 0.00 78 1016.2
20180624054617 64 152 0.0 0.0 0.00 0.00 0.00 77 1016.1
20180624053113 64 319 0.0 0.0 0.00 0.00 0.00 77 1016.1
20180624051614 64 319 0.0 0.0 0.00 0.00 0.00 76 1015.9
20180624050109 63 319 0.0 0.0 0.00 0.00 0.00 76 1015.8
20180624044608 63 319 0.0 0.0 0.00 0.00 0.00 76 1015.8
20180624043108 63 322 0.0 0.0 0.00 0.00 0.00 76 1015.7
20180624041611 63 317 0.0 0.0 0.00 0.00 0.00 76 1015.6
20180624040108 63 323 0.0 0.0 0.00 0.00 0.00 76 1015.5
20180624034608 63 287 0.0 0.0 0.00 0.00 0.00 76 1015.4
20180624033109 64 290 0.0 0.0 0.00 0.00 0.00 75 1015.4
20180624031606 64 290 0.0 0.0 0.00 0.00 0.00 76 1015.5
20180624030104 64 290 0.0 0.0 0.00 0.00 0.00 75 1015.4
20180624024603 64 290 0.0 0.0 0.00 0.00 0.00 75 1015.5
20180624023101 64 290 0.0 0.0 0.00 0.00 0.00 76 1015.6
20180624021602 64 290 0.0 0.0 0.00 0.00 0.00 76 1015.6
20180624020103 64 290 0.0 0.0 0.00 0.00 0.00 76 1015.7
20180624014559 64 288 0.0 1.0 0.00 0.00 0.00 77 1015.6
20180624013058 64 305 0.0 0.0 0.00 0.00 0.00 77 1015.6
20180624011600 64 285 0.0 0.0 0.00 0.00 0.00 78 1015.6
20180624010056 64 283 0.0 0.0 0.00 0.00 0.00 78 1015.8
20180624004558 64 301 0.0 0.0 0.00 0.00 0.00 78 1015.9
20180624003056 64 312 0.0 0.0 0.00 0.00 0.00 79 1016.0
20180624001553 64 17 0.0 0.0 0.00 0.00 0.00 80 1016.0
20180624000050 62 17 0.0 0.0 0.00 0.00 0.00 84 1016.2
20180623234552 62 117 0.0 0.0 0.00 0.00 0.00 84 1016.2
20180623233049 62 117 0.0 0.0 0.00 0.00 0.00 84 1016.3
20180623231548 62 117 0.0 0.0 0.00 0.00 0.00 83 1016.3
20180623230050 62 117 0.0 0.0 0.00 0.00 0.00 82 1016.3
20180623224544 63 117 0.0 0.0 0.00 0.00 0.00 81 1016.2
20180623223044 63 117 0.0 0.0 0.00 0.00 0.00 81 1016.1
20180623221542 63 117 0.0 0.0 0.00 0.00 0.00 80 1016.0
20180623220040 64 117 0.0 0.0 0.00 0.00 0.00 79 1016.0
20180623214535 64 117 0.0 0.0 0.00 0.00 0.00 77 1016.0
20180623213035 65 115 0.0 0.0 0.00 0.00 0.00 76 1015.8
20180623211536 65 115 0.0 0.0 0.00 0.00 0.00 75 1015.7
20180623210036 65 115 0.0 0.0 0.00 0.00 0.00 74 1015.7
20180623204538 66 115 0.0 0.0 0.00 0.00 0.00 74 1015.5
20180623203033 67 115 0.0 0.0 0.00 0.00 0.00 73 1015.5
20180623201532 67 115 0.0 0.0 0.00 0.00 0.00 71 1015.4
20180623200033 68 115 0.0 1.0 0.00 0.00 0.00 69 1015.1
20180623194533 68 116 0.0 0.0 0.00 0.00 0.00 69 1014.9
20180623193033 69 116 0.0 0.0 0.00 0.00 0.00 68 1014.5
20180623191535 70 116 0.0 0.0 0.00 0.00 0.00 67 1014.4
20180623190030 71 116 0.0 0.0 0.00 0.00 0.00 66 1014.3
20180623184535 72 122 2.0 6.0 0.00 0.00 0.00 63 1014.2
20180623183029 71 110 3.0 8.0 0.00 0.00 0.00 62 1014.1
20180623181529 72 163 1.0 8.0 0.00 0.00 0.00 63 1014.1
20180623180028 72 113 5.0 9.0 0.00 0.00 0.00 62 1014.0
20180623174533 72 153 1.0 6.0 0.00 0.00 0.00 63 1013.9
20180623173028 73 169 2.0 7.0 0.00 0.00 0.00 61 1013.9
20180623171526 73 166 0.0 5.0 0.00 0.00 0.00 62 1014.0
20180623170025 74 159 1.0 8.0 0.00 0.00 0.00 60 1013.9
20180623164527 74 160 3.0 10.0 0.00 0.00 0.00 60 1014.0
20180623163023 74 151 2.0 9.0 0.00 0.00 0.00 59 1014.1
20180623161525 74 162 6.0 9.0 0.00 0.00 0.00 59 1014.3
20180623160025 75 153 4.0 10.0 0.00 0.00 0.00 57 1014.4
20180623154520 75 146 2.0 12.0 0.00 0.00 0.00 59 1014.4
20180623153017 75 173 6.0 11.0 0.00 0.00 0.00 56 1014.6
20180623151517 76 167 3.0 15.0 0.00 0.00 0.00 56 1014.8
20180623150019 76 166 0.0 12.0 0.00 0.00 0.00 54 1014.9
20180623144516 77 174 3.0 12.0 0.00 0.00 0.00 55 1015.0